Location: L�gaud
(45.7115°N, 1.7775°E)
Time: 19:30:15
(UTC+00:00)

H-2A R/B - Pass Details

Date: 03 March 2021
Orbit: 732 x 837 km, 98.2° (Epoch: 13 April)

Event Time Altitude Azimuth Distance (km) Brightness Sun altitude
Rises 18:00:37 0° 151° (SSE) 3,366 5.1 -4.0°
Reaches altitude 10° 18:03:00 10° 147° (SSE) 2,442 4.3 -4.4°
Maximum altitude 18:08:17 55° 71° (ENE) 1,006 2.3 -5.3°
Drops below altitude 10° 18:13:36 10° 355° (N) 2,455 4.7 -6.2°
Sets 18:16:00 0° 351° (N) 3,386 5.4 -6.6°
